Regional Weather Roundup
Issued by NWS

Home | Current Version | Previous Version | Graphics & Text | Print | Product List | Glossary On
Versions: 1 2 3 4 5 6 7 8 9 10 11 12 13 14 15 16 17 18 19 20 21 22 23 24 25 26 27 28 29 30 31 32 33 34 35 36 37 38 39 40 41 42 43 44 45 46 47 48 49 50
000
ASUS43 KBIS 230010
RWRND

NORTH DAKOTA REGIONAL WEATHER ROUNDUP
NATIONAL WEATHER SERVICE BISMARCK ND
600 PM CST WED NOV 22 2017

NOTE: "FAIR" INDICATES FEW OR NO CLOUDS BELOW 12,000 FEET WITH NO
SIGNIFICANT WEATHER AND/OR OBSTRUCTIONS TO VISIBILITY.


NDZ001>003-009>011-017-230100-
NORTHWEST NORTH DAKOTA

CITY           SKY/WX    TMP DP  RH WIND       PRES   REMARKS
WILLISTON      CLEAR     34  26  72 NE6       29.97R
6HR MIN TEMP:  34; 6HR MAX TEMP:  51;

MINOT          CLEAR     27  20  75 NW8       29.94R WCI  19
MINOT AFB      CLOUDY    27  20  75 N7        29.94R WCI  20
$$

NDZ018>021-031>035-040>046-230100-
SOUTHWEST NORTH DAKOTA

CITY           SKY/WX    TMP DP  RH WIND       PRES   REMARKS
BISMARCK       CLEAR     50  36  58 N10       29.91R
6HR MIN TEMP:  43; 6HR MAX TEMP:  63;

DICKINSON      CLEAR     45  35  68 NW12      29.92R
GARRISON         N/A     33  30  88 N6        29.93R
6HR MIN TEMP:  32; 6HR MAX TEMP:  50;

HETTINGER ARPT CLOUDY    52  37  56 NW10      29.97R
$$

NDZ004>008-012>016-024-026-027-054-230100-
NORTHEAST NORTH DAKOTA

CITY           SKY/WX    TMP DP  RH WIND       PRES   REMARKS
GRAND FORKS    CLOUDY    28  20  71 SE5       29.93S
GRND FRKS AFB  CLOUDY    28  19  67 CALM      29.93R
DEVILS LAKE    CLOUDY    28  22  78 N10       29.92R WCI  19
$$

NDZ022-023-025-028>030-036>039-047>053-230100-
SOUTHEAST NORTH DAKOTA

CITY           SKY/WX    TMP DP  RH WIND       PRES   REMARKS
FARGO          CLEAR     29  15  56 SE10      29.91S WCI  20
6HR MIN TEMP:  27; 6HR MAX TEMP:  32; 6HR PCP: TRACE;

JAMESTOWN      CLEAR     34  27  75 NW10      29.87R
$$





USA.gov is the U.S. government's official web portal to all federal, state and local government web resources and services.